User: anonymous   Login
Location: Wilsall
(45.9940°N, 110.6590°W)
Time: 06:38:50
(UTC-07:00)
Language:

GP-B - Orbit

View from above orbital plane
View from above orbital plane
View from above satellite
View from above satellite

Ground track
Ground track

The orbit data is extracted from the following two-line orbital elements,

1 28230U 04014A   18018.71734428 +.00000125 +00000-0 +14824-4 0  9999
2 28230 089.8422 117.8241 0003322 096.9594 263.2006 14.78595427198140
Epoch (UTC): 18 January 2018 17:12:58
Eccentricity: 0.0003322
inclination: 89.8422°
perigee height: 631 km
apogee height: 636 km
right ascension of ascending node: 117.8241°
argument of perigee: 96.9594°
revolutions per day: 14.78595427
mean anomaly at epoch: 263.2006°
orbit number at epoch: 19814

The dashed part of the orbit path shows where the satellite is in the earth's shadow,  

DLR